FW6662 Weather Reports


Display with metric or nautical units.
time (UTC)temp
F
wind
direction
speed
MPH
gust
MPH
rain 1hr
in
rain 24hr
in
rain mn
in
humidity
%
barometer
mb
20260510204004 56 0 0.0 0.0 0.00 0.20 0.20 95 1015.1
20260510203504 55 0 0.0 0.0 0.00 0.20 0.20 95 1015.1
20260510203003 55 0 0.0 0.0 0.00 0.21 0.20 95 1015.1
20260510202525 55 5 0.0 1.0 0.00 0.21 0.20 95 1015.2
20260510202003 55 5 0.0 1.0 0.00 0.21 0.20 95 1015.1
20260510201504 55 5 0.0 1.0 0.00 0.21 0.20 95 1015.1
20260510201003 56 355 0.0 1.0 0.00 0.21 0.20 95 1015.2
20260510200525 56 355 0.0 1.0 0.00 0.21 0.20 95 1015.1
20260510200004 56 352 0.0 3.0 0.00 0.21 0.20 95 1015.2
20260510195503 56 340 1.0 3.0 0.00 0.21 0.20 95 1015.1
20260510195003 56 311 0.0 3.0 0.00 0.21 0.20 95 1015.3
20260510194504 56 305 0.0 3.0 0.00 0.22 0.20 96 1015.2
20260510194025 56 297 0.0 3.0 0.00 0.22 0.20 96 1015.3
20260510193503 56 292 0.0 3.0 0.00 0.22 0.20 96 1015.4
20260510193004 56 267 0.0 3.0 0.00 0.22 0.20 96 1015.3
20260510192524 56 249 0.0 3.0 0.00 0.22 0.20 96 1015.4
20260510192003 56 347 0.0 3.0 0.00 0.22 0.20 96 1015.4
20260510191504 56 13 0.0 3.0 0.00 0.22 0.20 95 1015.5
20260510191003 56 315 0.0 3.0 0.00 0.23 0.20 96 1015.4
20260510190503 56 230 0.0 4.0 0.00 0.23 0.20 95 1015.5
20260510190004 56 143 0.0 4.0 0.00 0.23 0.20 96 1015.5
20260510185503 56 271 0.0 3.0 0.00 0.24 0.20 96 1015.5
20260510185004 56 291 0.0 3.0 0.00 0.24 0.20 96 1015.4
20260510184504 56 298 0.0 3.0 0.01 0.24 0.20 96 1015.5
20260510184003 56 304 0.0 1.0 0.01 0.24 0.20 96 1015.2
20260510183504 56 299 1.0 7.0 0.05 0.24 0.20 95 1015.2
20260510183003 56 317 1.0 7.0 0.10 0.24 0.20 95 1015.3
20260510182504 56 345 1.0 6.0 0.14 0.25 0.20 96 1015.2
20260510182003 56 23 0.0 6.0 0.19 0.25 0.20 95 1015.2
20260510181503 56 178 0.0 6.0 0.20 0.25 0.20 95 1015.2
20260510181004 56 245 0.0 3.0 0.20 0.26 0.20 95 1015.1
20260510180503 56 249 0.0 3.0 0.20 0.26 0.20 95 1015.0
20260510180004 56 233 0.0 3.0 0.20 0.26 0.20 95 1015.1
20260510175503 57 213 0.0 3.0 0.20 0.26 0.20 94 1015.1
20260510175003 57 290 1.0 6.0 0.20 0.27 0.20 94 1015.2
20260510174503 57 318 1.0 6.0 0.19 0.26 0.19 93 1015.1
20260510174003 57 311 0.0 4.0 0.19 0.26 0.19 92 1015.1
20260510173503 58 249 1.0 6.0 0.15 0.22 0.15 90 1015.1
20260510173004 59 311 3.0 7.0 0.10 0.17 0.10 88 1015.0
20260510172503 60 324 3.0 7.0 0.06 0.13 0.06 87 1014.8
20260510172004 61 280 3.0 7.0 0.01 0.08 0.01 85 1014.8
20260510171504 61 252 3.0 13.0 0.00 0.07 0.00 82 1014.4
20260510171003 62 231 3.0 13.0 0.00 0.08 0.00 80 1014.4
20260510170503 62 229 3.0 9.0 0.00 0.08 0.00 80 1014.2
20260510170004 62 209 1.0 7.0 0.00 0.08 0.00 83 1014.1
20260510165503 62 203 1.0 7.0 0.00 0.08 0.00 80 1014.2
20260510165003 62 203 3.0 12.0 0.00 0.09 0.00 77 1014.1
20260510164503 63 177 3.0 12.0 0.00 0.09 0.00 78 1014.2
20260510164004 63 176 3.0 10.0 0.00 0.09 0.00 79 1014.0
20260510163503 63 178 3.0 13.0 0.00 0.10 0.00 77 1014.0
20260510163024 63 181 1.0 13.0 0.00 0.10 0.00 76 1013.9
20260510162503 64 179 1.0 4.0 0.00 0.11 0.00 78 1014.0
20260510162003 64 158 0.0 4.0 0.00 0.11 0.00 73 1013.8
20260510161503 64 175 1.0 6.0 0.00 0.11 0.00 73 1013.8
20260510161003 64 182 1.0 6.0 0.00 0.12 0.00 71 1013.7
20260510160503 65 2 0.0 3.0 0.00 0.12 0.00 73 1013.8
20260510160003 65 63 0.0 4.0 0.00 0.12 0.00 69 1013.8
20260510155504 65 286 1.0 6.0 0.00 0.12 0.00 74 1013.9
20260510155004 64 222 1.0 6.0 0.00 0.12 0.00 73 1013.9
20260510154524 64 143 1.0 4.0 0.00 0.12 0.00 74 1013.9
20260510154004 64 309 3.0 9.0 0.00 0.13 0.00 72 1013.8
20260510153503 64 306 3.0 9.0 0.00 0.13 0.00 74 1014.0
20260510153003 63 100 0.0 6.0 0.00 0.13 0.00 76 1014.0
20260510152525 63 263 0.0 6.0 0.00 0.13 0.00 77 1014.1
20260510152024 63 276 1.0 6.0 0.00 0.13 0.00 76 1014.1
20260510151524 63 291 1.0 6.0 0.00 0.14 0.00 76 1014.2
20260510151003 62 296 0.0 6.0 0.00 0.14 0.00 77 1014.2
20260510150503 62 290 0.0 3.0 0.00 0.14 0.00 78 1014.2
20260510150003 62 253 0.0 7.0 0.00 0.14 0.00 81 1014.2
20260510145503 62 205 0.0 7.0 0.00 0.14 0.00 77 1014.1
20260510145003 62 252 1.0 4.0 0.00 0.14 0.00 82 1014.1
20260510144504 61 287 1.0 6.0 0.00 0.15 0.00 79 1013.8
20260510144004 61 293 1.0 6.0 0.00 0.15 0.00 81 1013.9
20260510143504 60 301 1.0 6.0 0.00 0.15 0.00 83 1013.7
20260510143003 60 332 1.0 4.0 0.00 0.15 0.00 82 1014.0
20260510142503 60 323 1.0 4.0 0.00 0.15 0.00 82 1014.0
20260510142003 60 296 1.0 10.0 0.00 0.15 0.00 84 1014.0
20260510141503 59 285 1.0 10.0 0.00 0.16 0.00 85 1014.0
20260510141003 59 303 1.0 7.0 0.00 0.16 0.00 85 1013.8
20260510140506 59 302 1.0 6.0 0.00 0.16 0.00 87 1013.8
20260510140003 59 274 1.0 6.0 0.00 0.16 0.00 88 1013.8
20260510135503 58 284 1.0 7.0 0.00 0.16 0.00 86 1013.7
20260510135003 58 297 3.0 12.0 0.00 0.16 0.00 86 1013.7
20260510134503 58 297 1.0 12.0 0.00 0.16 0.00 88 1013.7
20260510134003 58 285 0.0 12.0 0.00 0.17 0.00 90 1013.6
20260510133503 57 234 0.0 1.0 0.00 0.17 0.00 90 1013.7
20260510133025 57 280 0.0 3.0 0.00 0.17 0.00 89 1013.7
20260510132503 57 293 0.0 4.0 0.00 0.17 0.00 88 1013.6
20260510132024 57 291 0.0 4.0 0.00 0.17 0.00 92 1013.5
20260510131503 56 320 0.0 1.0 0.00 0.17 0.00 90 1013.4
20260510131024 56 312 0.0 3.0 0.00 0.17 0.00 90 1013.5
20260510130524 56 288 0.0 3.0 0.00 0.17 0.00 91 1013.5
20260510130024 56 260 0.0 4.0 0.00 0.18 0.00 93 1013.5
20260510125503 55 222 1.0 4.0 0.00 0.18 0.00 93 1013.5
20260510125003 55 212 1.0 6.0 0.00 0.18 0.00 95 1013.5
20260510124503 54 207 1.0 6.0 0.00 0.19 0.00 96 1013.5
20260510124024 54 208 1.0 4.0 0.00 0.19 0.00 97 1013.5
20260510123504 54 205 1.0 3.0 0.00 0.19 0.00 97 1013.5
20260510123004 54 167 1.0 7.0 0.00 0.20 0.00 96 1013.3
20260510122503 53 163 1.0 7.0 0.00 0.20 0.00 96 1013.4
20260510122003 53 162 1.0 7.0 0.00 0.20 0.00 98 1013.2
20260510121503 53 162 1.0 7.0 0.00 0.20 0.00 99 1013.2
20260510121024 53 158 1.0 6.0 0.00 0.20 0.00 99 1013.1
20260510120503 53 139 0.0 3.0 0.00 0.20 0.00 99 1013.0
20260510120003 52 136 0.0 3.0 0.00 0.20 0.00 99 1013.1
20260510115503 52 136 0.0 4.0 0.00 0.20 0.00 99 1013.1
20260510115003 52 175 0.0 4.0 0.00 0.20 0.00 99 1012.9
20260510114524 52 191 0.0 3.0 0.00 0.20 0.00 99 1013.0
20260510114024 52 175 1.0 6.0 0.00 0.20 0.00 99 1012.8
20260510113503 51 185 0.0 6.0 0.00 0.20 0.00 99 1012.7
20260510113003 51 0 0.0 0.0 0.00 0.20 0.00 99 1012.8
20260510112523 51 190 0.0 1.0 0.00 0.20 0.00 99 1012.7
20260510112003 50 190 0.0 1.0 0.00 0.20 0.00 99 1012.5
20260510111503 50 0 0.0 0.0 0.00 0.20 0.00 99 1012.2
20260510110503 50 190 0.0 1.0 0.00 0.20 0.00 99 1012.1
20260510110004 50 190 0.0 3.0 0.00 0.20 0.00 99 1012.0
20260510105524 50 190 1.0 3.0 0.00 0.20 0.00 99 1012.0
20260510105025 50 190 1.0 3.0 0.00 0.20 0.00 99 1011.9
20260510104524 49 191 1.0 4.0 0.00 0.20 0.00 99 1011.7
20260510104004 49 197 1.0 4.0 0.00 0.20 0.00 99 1011.6
20260510103503 49 196 1.0 6.0 0.00 0.20 0.00 99 1011.7
20260510103003 49 189 3.0 6.0 0.00 0.20 0.00 99 1011.6
20260510102504 49 178 3.0 6.0 0.00 0.20 0.00 99 1011.5
20260510102003 49 168 3.0 6.0 0.00 0.20 0.00 99 1011.4
20260510101503 49 166 1.0 6.0 0.00 0.20 0.00 98 1011.5
20260510101003 49 165 1.0 6.0 0.00 0.21 0.00 99 1011.5
20260510100503 50 157 1.0 7.0 0.00 0.21 0.00 99 1011.4
20260510100004 50 147 3.0 7.0 0.00 0.21 0.00 99 1011.4
20260510095525 49 150 1.0 6.0 0.00 0.21 0.00 99 1011.3
20260510095003 49 153 3.0 6.0 0.00 0.21 0.00 99 1011.3
20260510094503 49 143 1.0 6.0 0.00 0.21 0.00 99 1011.3
20260510094003 49 101 0.0 6.0 0.00 0.22 0.00 99 1011.5
20260510093503 49 257 0.0 1.0 0.00 0.22 0.00 99 1011.3
20260510093024 49 257 0.0 1.0 0.00 0.22 0.00 99 1011.3
20260510092503 49 257 0.0 1.0 0.00 0.22 0.00 99 1011.4
20260510092003 49 257 0.0 1.0 0.00 0.22 0.00 99 1011.2
20260510091524 49 257 0.0 1.0 0.00 0.22 0.00 99 1011.2
20260510091024 49 257 0.0 1.0 0.00 0.22 0.00 99 1011.1
20260510090503 49 0 0.0 0.0 0.00 0.22 0.00 99 1011.2
20260510090003 49 257 0.0 1.0 0.00 0.22 0.00 98 1011.2
20260510085524 49 257 0.0 1.0 0.00 0.22 0.00 98 1011.3
20260510085003 49 257 0.0 1.0 0.00 0.22 0.00 98 1011.2
20260510084503 49 257 0.0 3.0 0.00 0.22 0.00 98 1011.1
20260510084024 49 257 1.0 3.0 0.00 0.22 0.00 98 1010.8
20260510083503 49 257 1.0 3.0 0.00 0.22 0.00 98 1010.8
20260510083003 49 257 3.0 3.0 0.00 0.22 0.00 98 1010.9
20260510082503 49 257 1.0 3.0 0.00 0.22 0.00 98 1010.8
20260510082003 49 257 1.0 3.0 0.00 0.22 0.00 98 1010.6
20260510081503 49 257 1.0 3.0 0.00 0.23 0.00 98 1010.7
20260510081003 49 257 1.0 3.0 0.00 0.23 0.00 98 1010.5
20260510080503 49 257 0.0 1.0 0.00 0.23 0.00 99 1010.4
20260510080003 49 0 0.0 0.0 0.00 0.23 0.00 99 1010.3
20260510075503 49 0 0.0 0.0 0.00 0.23 0.00 99 1010.4
20260510075024 49 0 0.0 0.0 0.00 0.23 0.00 99 1010.3
20260510074503 49 0 0.0 0.0 0.00 0.23 0.00 98 1010.3
20260510074003 49 257 0.0 1.0 0.00 0.23 0.00 98 1010.4
20260510073503 49 257 0.0 3.0 0.00 0.23 0.00 98 1010.4
20260510073003 49 257 0.0 3.0 0.00 0.24 0.00 98 1010.4
20260510072503 49 257 0.0 1.0 0.00 0.24 0.00 98 1010.3
20260510072003 49 257 0.0 1.0 0.00 0.25 0.00 98 1010.4
20260510071503 49 257 0.0 3.0 0.00 0.25 0.00 98 1010.7
20260510071003 49 257 1.0 3.0 0.00 0.25 0.00 98 1010.7
20260510070524 49 257 0.0 3.0 0.00 0.26 0.00 98 1010.7
20260510070003 49 0 0.0 0.0 0.00 0.26 0.00 98 1010.6
20260510065503 49 0 0.0 0.0 0.00 0.27 0.00 98 1010.8
20260510065003 49 257 0.0 3.0 0.00 0.27 0.00 98 1010.8
20260510064503 50 223 1.0 3.0 0.00 0.28 0.00 98 1010.9
20260510064003 50 180 1.0 3.0 0.00 0.28 0.00 99 1011.0
20260510063503 50 143 1.0 4.0 0.00 0.29 0.00 99 1011.0
20260510063003 50 142 1.0 7.0 0.00 0.29 0.00 99 1010.8
20260510062503 50 139 1.0 7.0 0.00 0.30 0.00 99 1011.1
20260510062003 50 127 1.0 6.0 0.00 0.30 0.00 99 1011.2
20260510061503 50 110 1.0 3.0 0.00 0.30 0.00 98 1011.5
20260510061003 50 110 0.0 3.0 0.00 0.30 0.00 99 1011.9
20260510060503 50 110 0.0 1.0 0.00 0.30 0.00 99 1011.9
20260510060024 50 110 0.0 3.0 0.00 0.30 0.00 99 1012.1
20260510055503 50 110 0.0 3.0 0.00 0.30 0.00 99 1012.0
20260510055024 49 110 0.0 1.0 0.00 0.30 0.00 99 1012.2
20260510054503 49 110 0.0 1.0 0.00 0.30 0.00 99 1012.3
20260510054003 49 110 0.0 1.0 0.00 0.30 0.00 99 1012.2
20260510053503 49 102 0.0 3.0 0.00 0.31 0.00 99 1012.2
20260510053003 49 76 0.0 3.0 0.00 0.31 0.00 98 1012.2
20260510052503 49 41 1.0 4.0 0.00 0.31 0.00 98 1012.3
20260510052003 48 54 1.0 4.0 0.00 0.31 0.00 98 1012.2
20260510051503 48 37 1.0 4.0 0.00 0.31 0.00 98 1012.3
20260510051024 48 13 1.0 6.0 0.00 0.31 0.00 97 1012.5
20260510050503 49 346 3.0 9.0 0.00 0.31 0.00 97 1012.2
20260510050003 49 329 1.0 9.0 0.00 0.31 0.00 98 1012.1
20260510045503 49 0 0.0 0.0 0.00 0.31 0.00 98 1011.5
20260510045024 49 0 0.0 0.0 0.00 0.31 0.00 98 1011.5
20260510044524 49 0 0.0 0.0 0.00 0.31 0.00 98 1011.4
20260510044003 49 0 0.0 0.0 0.00 0.31 0.00 98 1011.1
20260510043503 49 0 0.0 0.0 0.00 0.31 0.00 98 1011.4
20260510043003 49 0 0.0 0.0 0.00 0.31 0.00 98 1011.3
20260510042503 50 0 0.0 0.0 0.00 0.31 0.00 98 1011.3
20260510042003 50 0 0.0 0.0 0.00 0.31 0.00 98 1011.4
20260510041503 50 355 0.0 3.0 0.00 0.31 0.00 98 1011.4
20260510041026 49 355 1.0 3.0 0.00 0.31 0.00 98 1011.4
20260510040526 49 355 1.0 3.0 0.00 0.31 0.00 98 1011.3
20260510040005 49 355 1.0 3.0 0.00 0.31 0.00 98 1011.2
20260510035505 49 347 1.0 4.0 0.00 0.31 0.31 98 1011.0
20260510035005 49 346 1.0 4.0 0.00 0.31 0.31 98 1011.1
20260510034505 49 0 0.0 0.0 0.00 0.31 0.31 98 1010.6
20260510034026 49 0 0.0 0.0 0.00 0.31 0.31 98 1010.4
20260510033505 49 0 0.0 0.0 0.00 0.31 0.31 98 1010.3
20260510033026 49 0 0.0 0.0 0.00 0.31 0.31 98 1010.4
20260510032505 49 0 0.0 0.0 0.00 0.31 0.31 98 1010.4
20260510032026 49 0 0.0 0.0 0.00 0.31 0.31 98 1010.5
20260510031526 49 0 0.0 0.0 0.00 0.31 0.31 98 1010.4
20260510031005 49 0 0.0 0.0 0.00 0.31 0.31 98 1010.4
20260510030505 49 0 0.0 0.0 0.00 0.31 0.31 98 1010.3
20260510030005 50 0 0.0 0.0 0.00 0.31 0.31 98 1010.4
20260510025505 50 0 0.0 0.0 0.00 0.31 0.31 98 1010.4
20260510025005 50 0 0.0 0.0 0.00 0.31 0.31 98 1010.5
20260510024505 50 0 0.0 0.0 0.00 0.31 0.31 98 1010.5
20260510024005 50 0 0.0 0.0 0.00 0.31 0.31 98 1010.5
20260510023525 50 0 0.0 0.0 0.00 0.31 0.31 98 1010.5
20260510023026 50 0 0.0 0.0 0.00 0.31 0.31 98 1010.5
20260510022525 50 0 0.0 0.0 0.00 0.31 0.31 98 1010.5
20260510022005 49 0 0.0 0.0 0.00 0.31 0.31 98 1010.5
20260510021505 49 0 0.0 0.0 0.00 0.31 0.31 98 1010.3
20260510021005 49 0 0.0 0.0 0.00 0.31 0.31 98 1010.3
20260510020504 49 0 0.0 0.0 0.00 0.31 0.31 97 1010.2
20260510020005 50 127 0.0 1.0 0.00 0.31 0.31 97 1010.4
20260510015526 50 127 0.0 1.0 0.00 0.31 0.31 97 1010.3
20260510015005 50 127 0.0 1.0 0.00 0.31 0.31 97 1010.3
20260510014504 50 0 0.0 0.0 0.00 0.31 0.31 97 1010.5
20260510014005 50 127 0.0 1.0 0.00 0.31 0.31 97 1010.5
20260510013505 50 127 0.0 1.0 0.00 0.31 0.31 97 1010.3
20260510013005 50 0 0.0 0.0 0.00 0.31 0.31 97 1010.2
20260510012525 50 146 0.0 1.0 0.00 0.31 0.31 97 1010.1
20260510012026 50 146 0.0 3.0 0.00 0.31 0.31 97 1010.0
20260510011504 50 145 0.0 3.0 0.00 0.31 0.31 97 1010.0
20260510011025 51 144 1.0 3.0 0.00 0.31 0.31 97 1010.2
20260510010506 51 144 1.0 3.0 0.00 0.31 0.31 97 1010.1
20260510010005 51 144 0.0 3.0 0.00 0.31 0.31 97 1010.2
20260510005526 51 151 0.0 3.0 0.00 0.31 0.31 97 1010.0
20260510005005 51 161 1.0 4.0 0.00 0.31 0.31 97 1009.8
20260510004505 51 169 1.0 4.0 0.00 0.31 0.31 97 1009.8
20260510004005 51 169 1.0 7.0 0.00 0.31 0.31 97 1009.9
20260510003505 51 163 1.0 7.0 0.00 0.31 0.31 97 1009.8
20260510003005 51 149 1.0 6.0 0.00 0.31 0.31 97 1009.9
20260510002505 51 144 1.0 3.0 0.00 0.31 0.31 97 1009.9
20260510002025 51 145 1.0 6.0 0.00 0.31 0.31 97 1009.9
20260510001504 51 140 1.0 6.0 0.00 0.31 0.31 97 1009.8
20260510001004 51 131 0.0 6.0 0.00 0.31 0.31 97 1009.8
20260510000505 51 147 0.0 6.0 0.00 0.31 0.31 97 1009.8
20260510000005 52 171 1.0 6.0 0.00 0.31 0.31 97 1009.9
20260509235525 52 175 1.0 6.0 0.00 0.31 0.31 96 1009.7
20260509235025 52 192 1.0 3.0 0.00 0.31 0.31 96 1009.7
20260509234504 52 205 1.0 4.0 0.00 0.31 0.31 96 1009.6
20260509234004 52 211 1.0 4.0 0.00 0.31 0.31 96 1009.5
20260509233505 52 220 1.0 4.0 0.00 0.31 0.31 96 1009.5
20260509233005 52 216 1.0 4.0 0.00 0.31 0.31 96 1009.4
20260509232504 52 206 3.0 4.0 0.00 0.31 0.31 96 1009.2
20260509232005 52 203 1.0 6.0 0.00 0.31 0.31 96 1009.2
20260509231504 53 202 1.0 6.0 0.00 0.31 0.31 96 1009.3
20260509231004 53 205 1.0 4.0 0.00 0.31 0.31 96 1009.3
20260509230504 53 212 0.0 3.0 0.00 0.31 0.31 96 1009.5
20260509230004 53 218 0.0 1.0 0.00 0.31 0.31 96 1009.5
20260509225526 53 193 1.0 6.0 0.00 0.31 0.31 96 1009.6
20260509225004 53 196 1.0 6.0 0.00 0.31 0.31 96 1009.3
20260509224504 54 206 1.0 4.0 0.00 0.31 0.31 97 1009.3
20260509224005 54 205 1.0 6.0 0.00 0.31 0.31 97 1009.2
20260509223504 54 199 3.0 6.0 0.00 0.31 0.31 97 1009.2
20260509223005 54 186 3.0 6.0 0.00 0.31 0.31 97 1009.3
20260509222504 54 178 1.0 4.0 0.00 0.31 0.31 97 1009.3
20260509222004 54 187 1.0 4.0 0.00 0.31 0.31 97 1009.3
20260509221525 54 186 1.0 4.0 0.00 0.31 0.31 97 1009.3
20260509221005 54 174 1.0 6.0 0.00 0.31 0.31 98 1009.3
20260509220505 54 167 1.0 7.0 0.00 0.31 0.31 98 1009.3
20260509220005 54 163 1.0 7.0 0.00 0.31 0.31 98 1009.6
20260509215504 54 159 1.0 4.0 0.00 0.31 0.31 98 1009.6
20260509215025 53 173 1.0 6.0 0.00 0.31 0.31 98 1009.6
20260509214504 53 179 1.0 9.0 0.00 0.31 0.31 98 1009.7
20260509214004 53 157 3.0 9.0 0.00 0.31 0.31 98 1009.8
20260509213504 52 157 1.0 7.0 0.00 0.31 0.31 98 1009.7
20260509213005 52 168 1.0 7.0 0.01 0.31 0.31 98 1009.8
20260509212504 52 165 1.0 6.0 0.01 0.32 0.31 98 1009.8
20260509212004 52 152 3.0 7.0 0.01 0.32 0.31 98 1009.8
20260509211504 52 147 1.0 7.0 0.01 0.32 0.31 98 1009.8
20260509211026 52 149 1.0 6.0 0.01 0.32 0.31 98 1009.9
20260509210504 52 146 1.0 7.0 0.01 0.32 0.31 98 1009.8
20260509210004 52 146 3.0 10.0 0.01 0.32 0.31 98 1009.9
20260509205504 52 150 3.0 10.0 0.01 0.32 0.31 98 1009.9
20260509205005 52 149 3.0 9.0 0.01 0.32 0.31 98 1010.0
20260509204504 52 147 3.0 7.0 0.02 0.32 0.31 98 1010.0